OpenBCM V2.0.3 (Linux)

Packet Radio Mailbox

IZ3LSV

[San Dona' di P. JN]

 Login: GUEST





  
I0OJJ  > AMSAT    19.07.26 02:39l 322 Lines 15211 Bytes #999 (0) @ WW
BID : A5RIR_I0OJJ
Read: GUEST
Subj: 2Line Orbital Elements
Path: IZ3LSV<I0OJJ
Sent: 260719/0037z @:I0OJJ.ITA.EU [Rome] $:A5RIR_I0OJJ

>From i0ojj@i0ojj.ampr.org Sun Jul 19 02:37:17 2026
Received: from i0ojj.ampr.org by i0ojj.ampr.org (JNOS2.0q.1) with SMTP
	id AA17065107 ; Sun, 19 Jul 2026 02:37:17 +0200
Received: by i0ojj.ampr.org with SMTP
	id AA17065101 ; Sun, 19 Jul 2026 02:27:02 +0200
Message-Id: <17065102@i0ojj.ampr.org>
>From: i0ojj@i0ojj.ampr.org

SB KEPS @ AMSAT  $ORB26200.1
2Line Orbital Elements 26200.AMSAT

QST de W1STR

AMSAT Orbital Elements for Amateur Satellites in TLE Format
>From Orbital Analysis Office
New England Sci-Tech STEM Education Center
Natick MA July 19, 2026
To all radio amateurs


These element sets describe the orbits of various satellites 
in use by the amateur radio community. For details see:
www.amsat.org/keplerian-elements-formats/

A daily update of element sets is available at:
www.amsat.org/tle/daily-bulletin.txt
or without bulletin text:
www.amsat.org/tle/dailytle.txt


AO-07
1 07530U 74089B   26199.52413094 -.00000050  00000-0 -25006-4 0  9992
2 07530 101.9906 213.0974 0012646  72.2029  82.3408 12.53698622364440
UO-11
1 14781U 84021B   26199.36437234  .00000547  00000-0  61196-4 0  9998
2 14781  97.8079 164.5959 0009247  82.6885 277.5384 14.90853037261770
LO-19
1 20442U 90005G   26199.50802264  .00000020  00000-0  23779-4 0  9994
2 20442  98.8847 222.1757 0012618 112.5014 247.7507 14.34131278906883
AO-27
1 22825U 93061C   26199.60535373  .00000024  00000-0  26093-4 0  9997
2 22825  98.6865 267.0050 0008568  16.3290 343.8168 14.30949599711499
FO-29
1 24278U 96046B   26199.51073439 -.00000035  00000-0  89785-7 0  9990
2 24278  98.5218  44.0889 0350200  15.3498 345.7949 13.53275823477403
GO-32
1 25397U 98043D   26198.97124761  .00000003  00000-0  21480-4 0  9995
2 25397  99.0087 192.5089 0002267 110.8541 249.2880 14.24433657455716
ISS
1 25544U 98067A   26199.34696572  .00003718  00000-0  75524-4 0  9995
2 25544  51.6316 145.8895 0006803 309.9700  50.0690 15.49039991576580
NO-44
1 26931U 01043C   26199.58962571  .00000019  00000-0  38009-4 0  9993
2 26931  67.0497 163.0499 0005875 266.9181  93.1249 14.31965710294949
SO-50
1 27607U 02058C   26198.97124482  .00000371  00000-0  61897-4 0  9996
2 27607  64.5519  33.7353 0074442 256.7655 102.5140 14.83101410269020
CO-55
1 27844U 03031E   26199.29733931  .00000128  00000-0  74435-4 0  9994
2 27844  98.6744 207.4657 0010868  94.6885 265.5536 14.24352673196105
RS-22
1 27939U 03042A   26199.65801486  .00000522  00000-0  88505-4 0  9993
2 27939  98.3474  24.9074 0011507 162.3531 286.3663 14.73518075220186
CO-65
1 32785U 08021C   26199.80008588  .00001885  00000-0  12108-3 0  9997
2 32785  97.8299 181.8863 0006834 284.4890  75.5579 15.09718171989961
CO-66
1 32791U 08021J   26199.46116429  .00009670  00000-0  29894-3 0  9990
2 32791  97.7530 198.8780 0003459 149.6253 210.5190 15.33733639992086
RS-30
1 32953U 08025A   26199.80682667 -.00000008  00000-0 -12521-3 0  9991
2 32953  82.5070 335.7700 0018703 240.5762 119.3452 12.43180564823626
SRMSAT
1 37841U 11058D   26199.48245728  .00000322  00000-0  30967-4 0  9991
2 37841  19.9704 230.0483 0011665 187.3521 320.5069 14.11581472762241
ZACUBE-1
1 39417U 13066B   26199.80035074  .00001181  00000-0  94782-4 0  9999
2 39417  97.8003 162.2915 0044062 143.6350 216.7882 15.01337750685473
Delfi-N3xt
1 39428U 13066N   26199.76459236  .00002873  00000-0  25113-3 0  9996
2 39428  97.8314 120.0499 0075627 101.2840 259.6891 14.95379464679349
GOMX-1
1 39430U 13066Q   26199.84800809  .00000614  00000-0  99250-4 0  9999
2 39430  97.6463  38.3123 0127919 336.4536  23.0846 14.69547400674566
LO-74
1 39440U 13066AA  26199.81193301  .00001891  00000-0  17796-3 0  9991
2 39440  97.8920 148.9319 0055576 283.1152  76.3869 14.93981472681712
AO-73
1 39444U 13066AE  26199.87145521  .00004515  00000-0  27859-3 0  9999
2 39444  97.8298 171.9904 0037964  95.7411 264.8148 15.09848087684445
DTUSAT-2
1 40030U 14033W   26199.73837234  .00003519  00000-0  19028-3 0  9993
2 40030  98.0881 199.4794 0009544 121.6142 238.6021 15.15377493657460
LILACSAT-2
1 40908U 15049K   26199.86579248  .00010571  00000-0  17436-3 0  9994
2 40908  97.4623 237.9281 0008572 130.7952 229.4046 15.52440772600667
Lapan A3
1 41603U 16040E   26199.84478531  .00001573  00000-0  51204-4 0  9994
2 41603  97.1507 194.9570 0008275 259.9954 100.0355 15.33290417559665
CAS-2T
1 41847U 16066G   26199.82160718  .00000428  00000-0  68600-4 0  9991
2 41847  98.3812 275.1958 0342070  33.7721 328.4756 14.44774190509362
TechnoSat
1 42829U 17042E   26199.69660095  .00001247  00000-0  91546-4 0  9990
2 42829  97.4323 356.1645 0017091 352.0472   8.0481 15.05121620491442
AO-91
1 43017U 17073E   26199.88865458  .00003432  00000-0  15125-3 0  9991
2 43017  97.4662  66.4574 0148370 218.5900 140.4654 15.13090788470187
S-Net D
1 43186U 18014G   26199.73136882  .00002292  00000-0  11964-3 0  9990
2 43186  97.5324 104.3260 0006236 269.3147  90.7371 15.16935449463545
S-Net B
1 43187U 18014H   26199.67747862  .00002444  00000-0  12744-3 0  9996
2 43187  97.5330 104.2599 0006845 263.5777  96.4677 15.16904579463539
S-Net A
1 43188U 18014J   26199.73007259  .00002262  00000-0  11808-3 0  9991
2 43188  97.5339 104.5271 0006758 264.3439  95.7023 15.16943714463548
S-Net C
1 43189U 18014K   26199.68152536  .00002440  00000-0  12723-3 0  9990
2 43189  97.5357 104.5583 0008127 255.5653 104.4678 15.16895682462089
Ten-Koh
1 43677U 18084G   26199.81332150  .00001323  00000-0  10310-3 0  9995
2 43677  98.0767  33.5080 0009705  20.1602 340.0003 15.03057726420919
PO-101
1 43678U 18084H   26199.84516031  .00001009  00000-0  85085-4 0  9994
2 43678  98.1213  37.4399 0012639  73.2331 287.0277 15.00571240420968
QO-100
1 43700U 18090A   26199.73809396  .00000137  00000-0  00000+0 0  9994
2 43700   0.0167  76.3630 0002366  81.6518  70.0161  1.00273048 27998
MinXSS-2
1 43758U 18099A   26199.76648514  .00022328  00000-0  41337-3 0  9990
2 43758  97.4520 277.0235 0008795 149.6342 210.5420 15.48988510419018
AO-95
1 43770U 18099N   26199.13826366  .00005977  00000-0  22607-3 0  9998
2 43770  97.4363 259.2809 0007475 227.7066 132.3540 15.27309721417943
SNUSat 2
1 43782U 18099AA  26199.56080928  .00004225  00000-0  18639-3 0  9999
2 43782  97.4038 252.4687 0010610 176.3050 183.8266 15.22268993417802
SnugLite
1 43784U 18099AC  26199.58755818  .00005719  00000-0  21335-3 0  9996
2 43784  97.3844 253.5690 0003930 150.9452 209.2007 15.27800851418116
ITASat 1
1 43786U 18099AE  26199.70234998  .00003145  00000-0  15156-3 0  9998
2 43786  97.4009 250.5895 0011100 236.4623 123.5552 15.19405003417690
EAGLET 1
1 43790U 18099AJ  26199.66464663  .00001747  00000-0  10208-3 0  9991
2 43790  97.4212 248.5008 0009814 230.5618 129.4746 15.13148382417094
ESEO
1 43792U 18099AL  26199.84307494  .00001119  00000-0  84366-4 0  9991
2 43792  97.3963 235.8744 0011090 219.1861 140.8564 15.04331835416569
JO-97
1 43803U 18099AX  26199.14296429  .00009509  00000-0  28599-3 0  9998
2 43803  97.4106 262.1024 0007100 149.2378 210.9282 15.34577339418370
Suomi 100
1 43804U 18099AY  26199.68972108  .00006150  00000-0  22019-3 0  9993
2 43804  97.4162 259.9778 0010886 160.7892 199.3760 15.29079887418232
ISAT
1 43879U 18111D   26199.80804998  .00081425  00000-0  63369-3 0  9996
2 43879  97.5852 137.6108 0008269 132.9607 227.2350 15.71450890416123
UWE-4
1 43880U 18111E   26199.77857816  .00018634  00000-0  35827-3 0  9991
2 43880  97.5834 129.6699 0006675 180.9155 179.2083 15.47960214415667
Sparrow
1 43881U 18111F   26199.79601725  .00204153  00000-0  79803-3 0  9995
2 43881  97.6079 143.9206 0008768 136.3743 223.8222 15.86443595416366
Prox-1
1 44339U 19036A   26199.51211854  .00005920  00000-0  55193-3 0  9998
2 44339  23.9943 264.8852 0006264  44.1497 315.9502 14.91286428378151
Taurus 1
1 44530U 19059C   26199.57386459  .00003731  00000-0  59753-3 0  9990
2 44530  98.6444   6.3596 0008288 204.0901 155.9918 14.72389488363266
TO-108
1 44881U 19093C   26199.81575765  .00000480  00000-0  60124-4 0  9997
2 44881  97.7515 271.2747 0013218 349.4580  10.6357 14.86562778356111
RS-44
1 44909U 19096E   26199.82464753  .00000016  00000-0  14406-4 0  9993
2 44909  82.5244 318.6831 0218471  70.5556 291.9010 12.79748895306397
SALSAT
1 46495U 20068K   26199.01462697  .00004061  00000-0  14177-3 0  9990
2 46495  97.8861 203.9671 0009496 182.8082 177.3106 15.30195257320079
CSS (TIANHE-1)
1 48274U 21035A   26198.52240887  .00001129  00000-0  18813-4 0  9996
2 48274  41.4691 137.7269 0001921 301.5742  58.4908 15.58143309297902
CUTE
1 49263U 21088D   26197.83813593  .08921004  25505-5  41832-3 0  9995
2 49263  97.3907 300.4441 0014216 277.7997  82.1689 16.41647044267308
TeikyoSat 4
1 49396U 21102B   26199.54045018  .00000785  00000-0  52572-4 0  9996
2 49396  97.3662 227.8051 0012062 177.0769 183.0533 15.09605383257455
Z-Sat
1 49399U 21102E   26199.63322985  .00003218  00000-0  15872-3 0  9995
2 49399  97.3305 234.0034 0017822 133.4441 226.8280 15.18480550258212
KOSEN 1
1 49402U 21102H   26199.07090390  .00004215  00000-0  16014-3 0  9997
2 49402  97.3167 240.6335 0015453  98.6524 261.6467 15.27238111258737
HO-113
1 50466U 21131B   26199.64002398  .00000351  00000-0  12212-3 0  9998
2 50466  98.4990 291.8602 0004389  21.7641 338.3734 14.41383938239644
SNUGLITE 2
1 52899U 22065F   26199.32580052  .00000412  00000-0  87212-4 0  9991
2 52899  98.2241 344.1082 0006160 288.8455  71.2080 14.64397130215550
UmKA 1 (RS40S)
1 57172U 23091G   26199.60656908  .00002834  00000-0  13021-3 0  9991
2 57172  97.5030 258.1868 0012696  18.0786 342.0898 15.21142062168788
CubeBel-2 (EU11S)
1 57175U 23091K   26199.58597080  .00006510  00000-0  22753-3 0  9993
2 57175  97.5028 263.0969 0009182  14.8734 345.2775 15.29869815169104
